Printer-friendly version

IAU Minor Planet Center

Minor Planet Center

MPEC 2006-U35 : 2006 SX217

The following Minor Planet Electronic Circular may be linked-to from your own Web pages, but must not otherwise be redistributed electronically.


Read MPEC 2006-U34 Read MPEC 2006-U36


M.P.E.C. 2006-U35                                Issued 2006 Oct. 21, 00:47 UT

     The Minor Planet Electronic Circulars contain information on unusual
         minor planets and routine data on comets.  They are published
   on behalf of Commission 20 of the International Astronomical Union by the
          Minor Planet Center, Smithsonian Astrophysical Observatory,
                          Cambridge, MA 02138, U.S.A.

             Prepared using the Tamkin Foundation Computer Network

                              MPC@CFA.HARVARD.EDU
          URL http://cfa-www.harvard.edu/iau/mpc.html  ISSN 1523-6714

                                  2006 SX217

                           Revision to MPEC 2006-T07

Additional Observations:
     K06SL7X  C2001 10 19.48069 03 05 15.86 +21 10 19.6          20.2 R EU035644
     K06SL7X  C2001 10 19.49257 03 05 14.49 +21 10 25.6          20.2 R EU035644
     K06SL7X  C2001 10 19.50310 03 05 13.20 +21 10 31.7          20.1 R EU035644
     K06SL7X  C2001 10 26.40727 02 50 37.57 +22 06 38.6          19.8 R EU035644
     K06SL7X  C2001 10 26.45418 02 50 31.10 +22 06 58.9          20.4 R EU035644

Observer details:
644 Palomar Mountain/NEAT.  Observers E. F. Helin, S. Pravdo, K. Lawrence,
    K. Kuluhiwa, M. Hicks.  Measurer R. Matson.  1.2-m Schmidt + CCD.

Orbital elements:
2006 SX217                                          PHA, Earth MOID = 0.0324 AU
Epoch 2006 Sept. 22.0 TT = JDT 2454000.5                MPC
M 172.84953              (2000.0)            P               Q
n   0.58783412     Peri.  176.16611     -0.87332946     +0.44682573
a   1.4113439      Node    32.70131     -0.45594119     -0.60955906
e   0.3099246      Incl.   21.04600     -0.17150302     -0.65481640
P   1.68           H   18.6           G   0.15           U   5
Residuals in seconds of arc
011019 644  0.2-  0.4-    061001 701  1.1+  0.0     061003 291  0.4-  0.4+
011019 644  0.5+  0.4-    061001 G96  0.2+  0.1-    061003 291  0.1+  0.2+
011019 644  0.1+  0.3+    061001 G96  1.2-  0.1-    061011 691  0.5+  0.1-
011026 644  0.4-  0.1+    061001 701  0.4-  0.1-    061011 691  0.5+  0.5-
011026 644  0.3+  0.1-    061001 701 (2.3+  3.0-)   061011 691  0.4+  0.2-
060930 G96  0.2-  0.1-    061002 461  0.4-  0.5+    061012 291  0.4+  0.2+
060930 G96  0.2-  0.6-    061002 461  0.2-  0.5+    061012 291  0.2-  0.2+
060930 G96  0.4+  0.2-    061002 J95  0.7+  1.6-    061012 291  0.3-  0.1-
060930 G96  0.6-  0.0     061002 J95  0.9+  0.2+    061015 691  1.3+  0.2-
060930 G96  0.4-  0.3+    061002 J95  0.4-  0.5-    061015 691  0.5+  0.3-
060930 G96  0.4+  0.3+    061002 291  0.4+  0.8+    061015 691  0.1+  0.5-
060930 G96  0.2+  0.4+    061002 291  1.2-  0.2+    061019 291  0.2-  0.0
060930 G96  0.2+  0.1+    061002 291  0.5-  0.2+    061019 291  0.5-  0.1-
061001 291  0.8-  0.8+    061002 G96  0.5+  0.5-    061019 291  0.3-  0.3+
061001 291  0.1-  0.2+    061002 G96  0.4+  0.2-    061019 691  0.7-  0.4+
061001 291  0.6-  0.3+    061002 G96  0.2+  0.2-    061019 691  0.2-  0.1+
061001 G96  0.3+  0.0     061002 G96  0.0   0.2-    061019 691  0.6-  0.2+
061001 G96  0.1+  0.2+    061003 291  0.9+  0.0

Ephemeris:
2006 SX217               a,e,i = 1.41, 0.31, 21                  q = 0.9739
Date    TT    R. A. (2000) Decl.     Delta      r     Elong.  Phase     V
2006 10 12    02 55.10   +15 42.8    0.904    1.848   152.5    14.5    20.5
2006 10 22    02 35.15   +16 47.9    0.862    1.844   166.6     7.2    20.1
2006 11 01    02 12.12   +17 38.8    0.847    1.838   175.6     2.4    19.8
2006 11 11    01 49.27   +18 14.1    0.861    1.830   162.3     9.5    20.2
2006 11 21    01 29.74   +18 38.6    0.902    1.818   148.2    16.7    20.6
2006 12 01    01 15.60   +19 01.5    0.965    1.804   135.2    22.7    20.9
2006 12 11    01 07.39   +19 31.3    1.043    1.787   123.6    27.3    21.2
2006 12 21    01 04.71   +20 12.6    1.131    1.768   113.3    30.8    21.4
2006 12 31    01 06.86   +21 07.7    1.222    1.746   104.1    33.1    21.6
2007 01 10    01 13.03   +22 16.0    1.314    1.721    96.0    34.6    21.8
2007 01 20    01 22.60   +23 36.1    1.403    1.694    88.6    35.5    21.9
2007 01 30    01 35.11   +25 06.3    1.486    1.664    81.9    35.9    22.0

Gareth V. Williams           (C) Copyright 2006 MPC           M.P.E.C. 2006-U35

Read MPEC 2006-U34 Read MPEC 2006-U36


Our Web policy. Index to the CBAT/MPC/ICQ pages.


Valid HTML 4.01!